This is the latest recevied weather packets stored in our database for station/object K7KAR-2. If no packets are shown the sender has not sent any weather packets the latest 10 day(s).
| Time | Temp. | Humidity | Pressure | Rain* | Wind** | Luminosity | Snow |
|---|---|---|---|---|---|---|---|
| 1777753503 | 18.33° C | 12% | 1017 hPa | 0 mm | - | 798 W/m² | - |
| 1777753201 | 18.33° C | 11% | 1017.1 hPa | 0 mm | - | 579 W/m² | - |
| 1777752896 | 17.78° C | 13% | 1017.4 hPa | 0 mm | - | 817 W/m² | - |
| 1777752593 | 18.33° C | 13% | 1017.2 hPa | 0 mm | - | 841 W/m² | - |
| 1777752289 | 18.33° C | 11% | 1017.1 hPa | 0 mm | - | 789 W/m² | - |
| 1777751987 | 17.78° C | 13% | 1017.4 hPa | 0 mm | - | 799 W/m² | - |
| 1777751684 | 17.78° C | 11% | 1017.1 hPa | 0 mm | - | 696 W/m² | - |
| 1777751380 | 18.33° C | 12% | 1017.1 hPa | 0 mm | - | 748 W/m² | - |
| 1777751078 | 17.78° C | 11% | 1017.4 hPa | 0 mm | - | 648 W/m² | - |
| 1777750773 | 17.22° C | 12% | 1017.4 hPa | 0 mm | - | 752 W/m² | - |
| 1777750471 | 17.78° C | 11% | 1017.5 hPa | 0 mm | - | 692 W/m² | - |
| 1777750166 | 17.22° C | 11% | 1017.5 hPa | 0 mm | - | 448 W/m² | - |
| 1777749863 | 17.78° C | 13% | 1017.5 hPa | 0 mm | - | 354 W/m² | - |
| 1777749560 | 17.22° C | 11% | 1017.6 hPa | 0 mm | - | 579 W/m² | - |
| 1777749258 | 17.78° C | 12% | 1017.4 hPa | 0 mm | - | 732 W/m² | - |
| 1777748956 | 17.78° C | 11% | 1017.8 hPa | 0 mm | - | 807 W/m² | - |
| 1777748652 | 17.78° C | 13% | 1017.7 hPa | 0 mm | - | 794 W/m² | - |
| 1777748349 | 17.22° C | 13% | 1017.9 hPa | 0 mm | - | 749 W/m² | - |
| 1777748044 | 17.22° C | 13% | 1018.1 hPa | 0 mm | - | 744 W/m² | - |
| 1777747741 | 16.67° C | 14% | 1018.1 hPa | 0 mm | - | 808 W/m² | - |
| 1777747437 | 17.22° C | 13% | 1018 hPa | 0 mm | - | 598 W/m² | - |
| 1777747134 | 16.11° C | 15% | 1017.9 hPa | 0 mm | - | 817 W/m² | - |
| 1777746829 | 16.67° C | 13% | 1018 hPa | 0 mm | - | 431 W/m² | - |
| 1777746525 | 16.67° C | 15% | 1018.2 hPa | 0 mm | - | 612 W/m² | - |
| 1777746221 | 16.67° C | 14% | 1018.1 hPa | 0 mm | - | 704 W/m² | - |
* Rain latest hour (hover to see other rain measurements)
** Current wind speed in m/s (hover to see current wind gust speed)